When you browse on this site, cookies collect data to enhance your experience and personalize the content and advertising you see.
Visit our Privacy Policy to learn more. By continuing to use the site, you agree to this use of cookies and data.
  • En España
  • Lista de países
  • Para 7 días
  • Temperatura del agua
  • El tiempo en el mapa
  • Informadores
  • user-avatar
    Iniciar sesión

    Tiempo cada hora Brikama

    Hoy, 28 Febrero, Viernes

    Tiempo Temperatura Precipitaciones Viento Presión Humedad
    00:00 +25°C° 0 mm 2 mps 756 mmHg 53%
    01:00 +24°C° 0 mm 1 mps 756 mmHg 56%
    02:00 +24°C° 0 mm 1 mps 756 mmHg 60%
    03:00 +24°C° 0 mm 1 mps 756 mmHg 54%
    04:00 +24°C° 0 mm 2 mps 755 mmHg 49%
    05:00 +24°C° 0 mm 3 mps 755 mmHg 43%
    06:00 +26°C° 0 mm 3 mps 756 mmHg 35%
    07:00 +27°C° 0 mm 3 mps 756 mmHg 27%
    08:00 +28°C° 0 mm 4 mps 757 mmHg 20%
    09:00 +31°C° 0 mm 3 mps 757 mmHg 17%
    10:00 +35°C° 0 mm 3 mps 757 mmHg 15%
    11:00 +37°C° 0 mm 3 mps 756 mmHg 12%
    12:00 +38°C° 0 mm 4 mps 756 mmHg 12%
    13:00 +40°C° 0 mm 4 mps 755 mmHg 11%
    14:00 +41°C° 0 mm 5 mps 754 mmHg 10%
    15:00 +40°C° 0 mm 6 mps 754 mmHg 12%
    16:00 +38°C° 0 mm 6 mps 754 mmHg 14%
    17:00 +36°C° 0 mm 7 mps 754 mmHg 15%
    18:00 +33°C° 0 mm 6 mps 754 mmHg 25%
    19:00 +29°C° 0 mm 6 mps 755 mmHg 35%
    20:00 +26°C° 0 mm 6 mps 755 mmHg 45%
    21:00 +26°C° 0 mm 6 mps 756 mmHg 43%
    22:00 +26°C° 0 mm 5 mps 756 mmHg 42%
    23:00 +26°C° 0 mm 5 mps 756 mmHg 40%

    Mañana, 29 Febrero, Sábado

    Tiempo Temperatura Precipitaciones Viento Presión Humedad
    00:00 +25°C° 0 mm 5 mps 756 mmHg 39%
    01:00 +25°C° 0 mm 5 mps 755 mmHg 38%
    02:00 +23°C° 0 mm 5 mps 755 mmHg 38%
    03:00 +23°C° 0 mm 6 mps 755 mmHg 36%
    04:00 +23°C° 0 mm 6 mps 755 mmHg 35%
    05:00 +22°C° 0 mm 6 mps 755 mmHg 34%
    06:00 +23°C° 0 mm 6 mps 755 mmHg 30%
    07:00 +24°C° 0 mm 6 mps 756 mmHg 26%
    08:00 +26°C° 0 mm 7 mps 756 mmHg 23%
    09:00 +29°C° 0 mm 6 mps 756 mmHg 19%
    10:00 +34°C° 0 mm 6 mps 756 mmHg 15%
    11:00 +37°C° 0 mm 5 mps 756 mmHg 10%
    12:00 +39°C° 0 mm 5 mps 755 mmHg 10%
    13:00 +40°C° 0 mm 4 mps 754 mmHg 10%
    14:00 +42°C° 0 mm 4 mps 753 mmHg 9%
    15:00 +41°C° 0 mm 5 mps 753 mmHg 11%
    16:00 +40°C° 0 mm 6 mps 753 mmHg 12%
    17:00 +40°C° 0 mm 7 mps 752 mmHg 13%
    18:00 +35°C° 0 mm 7 mps 753 mmHg 22%
    19:00 +32°C° 0 mm 7 mps 753 mmHg 32%
    20:00 +27°C° 0 mm 8 mps 754 mmHg 41%
    21:00 +27°C° 0 mm 7 mps 754 mmHg 40%
    22:00 +26°C° 0 mm 7 mps 755 mmHg 40%
    23:00 +26°C° 0 mm 6 mps 755 mmHg 39%

    Pasado mañana, 1 Marzo, Domingo

    Tiempo Temperatura Precipitaciones Viento Presión Humedad
    00:00 +24°C° 0 mm 6 mps 755 mmHg 39%
    01:00 +25°C° 0 mm 5 mps 754 mmHg 39%
    02:00 +23°C° 0 mm 4 mps 754 mmHg 39%
    03:00 +23°C° 0 mm 4 mps 754 mmHg 36%
    04:00 +22°C° 0 mm 4 mps 754 mmHg 34%
    05:00 +22°C° 0 mm 4 mps 754 mmHg 32%
    06:00 +25°C° 0 mm 4 mps 754 mmHg 27%
    07:00 +26°C° 0 mm 5 mps 755 mmHg 21%
    08:00 +27°C° 0 mm 5 mps 755 mmHg 16%
    09:00 +32°C° 0 mm 5 mps 755 mmHg 14%
    10:00 +35°C° 0 mm 4 mps 755 mmHg 12%
    11:00 +38°C° 0 mm 4 mps 755 mmHg 10%
    12:00 +40°C° 0 mm 4 mps 754 mmHg 10%
    13:00 +41°C° 0 mm 4 mps 753 mmHg 10%
    14:00 +43°C° 0 mm 4 mps 753 mmHg 10%
    15:00 +41°C° 0 mm 5 mps 752 mmHg 13%
    16:00 +39°C° 0 mm 6 mps 752 mmHg 16%
    17:00 +36°C° 0 mm 7 mps 752 mmHg 20%
    18:00 +33°C° 0 mm 6 mps 753 mmHg 30%
    19:00 +29°C° 0 mm 5 mps 753 mmHg 40%
    20:00 +26°C° 0 mm 4 mps 754 mmHg 51%
    21:00 +25°C° 0 mm 3 mps 754 mmHg 53%
    22:00 +25°C° 0 mm 3 mps 754 mmHg 55%
    23:00 +25°C° 0 mm 2 mps 755 mmHg 57%

    2 Marzo, Lunes

    Tiempo Temperatura Precipitaciones Viento Presión Humedad
    00:00 +25°C° 0 mm 3 mps 754 mmHg 52%
    01:00 +25°C° 0 mm 3 mps 754 mmHg 48%
    02:00 +25°C° 0 mm 4 mps 754 mmHg 43%
    03:00 +23°C° 0 mm 4 mps 754 mmHg 41%
    04:00 +23°C° 0 mm 4 mps 754 mmHg 38%
    05:00 +23°C° 0 mm 4 mps 754 mmHg 36%
    06:00 +24°C° 0 mm 3 mps 754 mmHg 36%
    07:00 +25°C° 0 mm 3 mps 755 mmHg 37%
    08:00 +26°C° 0 mm 3 mps 755 mmHg 37%
    09:00 +30°C° 0 mm 3 mps 756 mmHg 30%
    10:00 +34°C° 0 mm 3 mps 756 mmHg 23%
    11:00 +37°C° 0 mm 3 mps 756 mmHg 16%
    12:00 +39°C° 0 mm 3 mps 755 mmHg 15%
    13:00 +40°C° 0 mm 3 mps 754 mmHg 14%
    14:00 +42°C° 0 mm 3 mps 754 mmHg 13%
    15:00 +40°C° 0 mm 4 mps 753 mmHg 20%
    16:00 +36°C° 0 mm 5 mps 753 mmHg 27%
    17:00 +33°C° 0 mm 6 mps 753 mmHg 34%
    18:00 +30°C° 0 mm 5 mps 754 mmHg 45%
    19:00 +28°C° 0 mm 5 mps 754 mmHg 56%
    20:00 +25°C° 0 mm 4 mps 755 mmHg 67%
    21:00 +25°C° 0 mm 4 mps 755 mmHg 64%
    22:00 +25°C° 0 mm 3 mps 756 mmHg 61%
    23:00 +25°C° 0 mm 3 mps 756 mmHg 57%

    3 Marzo, Martes

    Tiempo Temperatura Precipitaciones Viento Presión Humedad
    00:00 +25°C° 0 mm 3 mps 756 mmHg 54%
    01:00 +25°C° 0 mm 3 mps 755 mmHg 52%
    02:00 +25°C° 0 mm 4 mps 755 mmHg 49%
    03:00 +24°C° 0 mm 3 mps 755 mmHg 53%
    04:00 +22°C° 0 mm 3 mps 755 mmHg 58%
    05:00 +23°C° 0 mm 2 mps 755 mmHg 63%
    06:00 +24°C° 0 mm 2 mps 755 mmHg 57%
    07:00 +26°C° 0 mm 2 mps 756 mmHg 50%
    08:00 +27°C° 0 mm 2 mps 756 mmHg 44%
    09:00 +30°C° 0 mm 2 mps 756 mmHg 36%
    10:00 +34°C° 0 mm 2 mps 756 mmHg 27%
    11:00 +37°C° 0 mm 2 mps 756 mmHg 19%
    12:00 +38°C° 0 mm 2 mps 755 mmHg 17%
    13:00 +40°C° 0 mm 3 mps 755 mmHg 15%
    14:00 +42°C° 0 mm 4 mps 754 mmHg 14%
    15:00 +38°C° 0 mm 4 mps 754 mmHg 21%
    16:00 +36°C° 0 mm 5 mps 754 mmHg 28%
    17:00 +33°C° 0 mm 5 mps 754 mmHg 36%
    18:00 +29°C° 0 mm 5 mps 754 mmHg 46%
    19:00 +27°C° 0 mm 4 mps 755 mmHg 57%
    20:00 +25°C° 0 mm 3 mps 755 mmHg 67%
    21:00 +25°C° 0 mm 3 mps 756 mmHg 63%
    22:00 +25°C° 0 mm 3 mps 756 mmHg 58%
    23:00 +25°C° 0 mm 3 mps 756 mmHg 53%

    4 Marzo, Miércoles

    Tiempo Temperatura Precipitaciones Viento Presión Humedad
    00:00 +25°C° 0 mm 4 mps 756 mmHg 52%
    01:00 +25°C° 0 mm 4 mps 755 mmHg 51%
    02:00 +25°C° 0 mm 4 mps 755 mmHg 51%
    03:00 +23°C° 0 mm 4 mps 755 mmHg 54%
    04:00 +23°C° 0 mm 4 mps 755 mmHg 57%
    05:00 +22°C° 0 mm 4 mps 755 mmHg 60%
    06:00 +25°C° 0 mm 3 mps 755 mmHg 51%
    07:00 +26°C° 0 mm 3 mps 756 mmHg 43%
    08:00 +27°C° 0 mm 3 mps 756 mmHg 34%
    09:00 +30°C° 0 mm 3 mps 756 mmHg 27%
    10:00 +34°C° 0 mm 3 mps 756 mmHg 21%
    11:00 +37°C° 0 mm 3 mps 756 mmHg 14%
    12:00 +38°C° 0 mm 3 mps 756 mmHg 14%
    13:00 +40°C° 0 mm 3 mps 755 mmHg 13%
    14:00 +42°C° 0 mm 3 mps 754 mmHg 12%
    15:00 +40°C° 0 mm 4 mps 754 mmHg 16%
    16:00 +37°C° 0 mm 5 mps 754 mmHg 19%
    17:00 +34°C° 0 mm 6 mps 754 mmHg 23%
    18:00 +32°C° 0 mm 5 mps 754 mmHg 34%
    19:00 +28°C° 0 mm 4 mps 754 mmHg 46%
    20:00 +25°C° 0 mm 3 mps 755 mmHg 57%
    21:00 +25°C° 0 mm 3 mps 755 mmHg 57%
    22:00 +25°C° 0 mm 3 mps 755 mmHg 58%
    23:00 +25°C° 0 mm 3 mps 756 mmHg 58%
    Mostrar más